TIANQI 31

导读

TIANQI 31即天启31卫星,是中国“天启星座”组网卫星之一,于2024年9月20日由快舟一号甲运载火箭在西昌卫星发射中心,以“一箭四星”方式送入预定轨道。 天启星座是我国首个低轨卫星物联网星座,天启31将为全球用户提供卫星物联网数据通信服务,可服务于环境监测、应急通信、智慧农林等多个领域,助力天启星座全球组网建设。

基本信息
目录编号:
61197
目录名称:
TIANQI 31
国际标识:
2024-170C
轨道中心:
EARTH
卫星名称:
TIANQI 31
卫星全名:
TIANQI 31
卫星状态:
在轨 (已飞行721 天)
发射日期:
2024-09-20 UTC
国别 :
中国 (CN)
星等 :
--
该卫星已列入 空间交会检测服务 Space Conjunction Data Service (SCDS) ,当前飞行风险评估等级: 无高风险
轨道信息
数据来源 国际轨道数据 AOE轨道数据
星历时间 2026-09-11T06:07:10+0800
11小时前
查看轨道信息
2026-09-10T02:00:00+0800
1天前
查看轨道信息
半长轴 7279.818km 7279.82km
偏心率 0.0007994 0.0007915
轨道倾角 44.861° 44.861°
近地点辐角 120.230° 114.408°
升交点赤经 115.928° 121.141°
平近点角 239.932° 104.699°
近地点 895.861km 895.921km
远地点 907.501km 907.445km
周期 103.024分钟 103.025分钟
每日圈数 13.977259 13.977253
详细信息
使用方式:
暂无
2D轨道图
3D轨道图
轨道高度分析图
轨道倾角分析图
轨道综合分析图
查看轨道综合分析图
与全量物体交会距离演化趋势
与全量物体交会风险概率演化趋势